#timestamp,LO_Frequency,Hit,StdDev 
1570863615.7,286047000.8,N
1570863635.5,286046998.2,N
1570863655.4,286046998.1,N
1570863675.2,286047000.2,N
1570863695.1,286047000.6,N
1570863696.0,286047000.6,N
1570863715.8,286046998.9,N
1570863735.6,286046998.6,N
1570863755.5,286046996.6,N
1570863775.3,286046999.3,N
1570863795.1,286046998.3,N
1570863815.9,286046996.7,N
1570863835.7,286046999.1,N
1570863855.6,286046998.7,N
1570863875.4,286047000.8,N
1570863895.3,286047000.4,N
1570863915.1,286047002.4,N
1570863935.9,286047001.9,N
1570863955.7,286047000.1,N
1570863975.6,286047000.3,N
1570863995.4,286046999.7,N
1570864015.2,286047001.0,N
1570864035.1,286046998.4,N
1570864036.0,286046998.4,N
1570864055.8,286046998.5,N
1570864075.7,286047001.1,N
1570864095.5,286047001.0,N
1570864115.3,286046999.4,N
1570864135.2,286046996.5,N
1570864155.0,286046996.7,N
1570864155.9,286046996.7,N
1570864175.8,286046996.6,N
1570864195.6,286046998.7,N
1570864215.4,286046998.2,N
1570864235.3,286046998.7,N
1570864255.1,286046997.0,N
1570864275.8,286046995.6,N
1570864295.7,286046993.9,Y
1570864315.5,286046997.7,P
1570864335.3,286046999.1,N
1570864355.2,286046998.5,N
1570864375.9,286047000.0,N
1570864395.7,286047002.3,Y
1570864415.6,286047004.0,P
1570864435.4,286047002.1,N
1570864455.3,286047002.7,N
1570864475.1,286046998.2,N
1570864476.0,286046998.2,N
1570864495.8,286046998.2,N
1570864515.7,286047001.0,N
1570864535.5,286047002.0,N
1570864555.4,286047001.3,N
1570864575.2,286047003.6,N
1570864595.0,286047004.3,N
1570864595.9,286047004.3,N
1570864615.8,286047003.3,N
1570864635.6,286047002.9,N
1570864655.4,286047003.7,N
1570864675.3,286047004.2,N
1570864695.1,286047003.8,N
1570864715.9,286047003.7,N
1570864735.7,286047003.5,N
1570864755.5,286047001.9,N
1570864775.4,286047000.5,N
1570864795.2,286047002.2,N
1570864815.1,286047003.6,N
1570864816.0,286047003.6,N
1570864835.3,286047004.2,N
1570864855.1,286047002.3,N
1570864875.3,286047000.1,N
1570864895.1,286047000.1,N
1570864915.9,286047002.2,N
1570864935.7,286046999.7,N
1570864955.5,286047000.7,N
1570864975.4,286047000.7,N
1570864995.2,286046999.2,N
1570865015.1,286047000.7,N
1570865016.0,286047000.7,N
1570865035.8,286046998.4,N
1570865055.6,286047002.7,N
1570865075.5,286047004.2,N
1570865095.3,286047003.9,N
1570865115.1,286047003.8,N
1570865135.9,286047005.6,Y
1570865155.7,286047003.7,P
1570865175.6,286047002.2,P
1570865195.4,286047000.2,N
1570865215.2,286047002.7,N
1570865235.1,286047002.7,N
1570865236.0,286047002.7,N
1570865255.8,286047002.7,N
1570865275.7,286047000.0,N
1570865295.5,286046999.9,N
1570865315.3,286047000.4,N
1570865335.2,286047000.1,N
1570865355.0,286047000.9,N
1570865355.9,286047000.9,N
1570865375.8,286047002.4,N
1570865395.6,286047001.2,N
1570865415.4,286047000.1,N
1570865435.3,286047000.5,N
1570865455.1,286046998.7,N
1570865475.9,286046999.5,N
1570865495.7,286046998.9,N
1570865515.5,286046999.2,N
1570865535.4,286046998.5,N
1570865555.2,286046998.1,N
1570865575.0,286046999.4,N
1570865575.9,286046999.4,N
1570865595.8,286046999.2,N
1570865615.6,286046999.3,N
1570865635.5,286047001.2,N
1570865655.3,286047002.8,N
1570865675.1,286047002.4,N
1570865695.9,286046999.9,N
1570865715.7,286047000.5,N
1570865735.6,286046999.7,N
1570865755.4,286047000.9,N
1570865775.2,286046999.9,N
1570865795.1,286046998.1,N
1570865796.0,286046998.1,N
1570865815.8,286046998.4,N
1570865835.8,286047000.4,N
1570865855.6,286046998.1,N
1570865875.5,286047000.7,N
1570865895.3,286047002.8,N
1570865915.1,286047001.1,N
1570865935.9,286047000.8,N
1570865955.7,286047000.2,N
1570865975.6,286047002.4,N
1570865995.4,286047000.1,N
1570866015.2,286046999.8,N
1570866035.1,286047000.1,N
1570866036.0,286047000.1,N
1570866055.8,286047002.2,N
1570866075.7,286047001.3,N
1570866095.5,286047002.7,N
1570866115.3,286047003.6,N
1570866135.2,286047001.7,N
1570866155.0,286047003.2,N
1570866155.9,286047003.2,N
1570866175.0,286047003.6,N
1570866175.9,286047003.6,N
1570866195.8,286046999.8,N
1570866215.6,286047002.6,N
1570866235.4,286047002.2,N
1570866255.3,286047001.8,N
1570866275.1,286047001.6,N
1570866295.8,286047002.3,N
1570866315.7,286047002.5,N
1570866335.5,286046999.7,N
1570866355.4,286047001.9,N
1570866375.9,286047002.8,N
1570866395.7,286047002.6,N
1570866415.6,286047002.3,N
1570866435.4,286047001.9,N
1570866455.2,286047000.2,N
1570866475.1,286047001.8,N
1570866476.0,286047001.8,N
1570866495.8,286047001.7,N
1570866515.7,286047000.0,N
1570866535.5,286047000.6,N
1570866555.3,286047002.2,N
1570866575.2,286047002.8,N
1570866595.0,286047001.8,N
1570866595.9,286047001.8,N
1570866615.8,286047000.2,N
1570866635.6,286047000.4,N
1570866655.4,286047001.2,N
1570866675.3,286047000.9,N
1570866695.1,286046998.2,N
1570866715.8,286047000.7,N
1570866735.7,286047004.0,Y
1570866755.5,286047001.5,P
1570866775.4,286047002.8,P
1570866795.2,286047000.1,N
1570866815.0,286047002.7,N
1570866815.9,286047002.7,N
1570866835.8,286047000.5,N
1570866855.6,286047000.7,N
1570866875.5,286047002.8,N
1570866895.3,286047001.9,N
1570866915.1,286047000.0,N
1570866935.9,286047002.5,N
1570866955.7,286047002.6,N
1570866975.5,286047003.6,Y
1570866995.4,286047001.4,P
1570867015.2,286047003.4,P
1570867035.1,286047003.4,P
1570867036.0,286047003.4,Y
1570867055.8,286047002.4,P
1570867075.6,286047001.6,P
1570867095.5,286047001.6,P
1570867115.3,286047003.8,Y
1570867135.2,286047000.0,P
1570867155.9,286047001.0,N
1570867205.8,286046999.1,E
